Tracking 22780 objects as of 11-Apr-2021
HD Live streaming from Space Station
objects crossing your sky now

MEZNSAT

Track MEZNSAT now!
10-day predictions
MEZNSAT is classified as:


NORAD ID: 46489
Int'l Code: 2020-068D
Perigee: 549.7 km
Apogee: 574.6 km
Inclination: 97.7 °
Period: 95.8 minutes
Semi major axis: 6933 km
RCS: Unknown
Launch date: September 28, 2020
Source: (UNK)
Launch site: PLESETSK MISSILE AND SPACE COMPLEX (PKMTR)

Uplink (MHz):
Downlink (MHz): 436.600
Beacon (MHz):
Mode: 1k2/2k4 BPSK
Call sign: A68MZ
Status: Active

aabbcc
Your satellite tracking list
Your tracking list is empty




NASA's NSSDC Master Catalog

Two Line Element Set (TLE):
1 46489U 20068D   21100.79035423 -.00000080  00000-0 -12538-5 0  9998
2 46489  97.6871  38.8204 0018006 307.6054  52.3560 15.03856900 29195
Source of the keplerian elements: AFSPC